KD2FGL-13 Weather Reports


time (UTC)temp
C
wind
direction
speed
KPH
gust
KPH
rain 1hr
cm
rain 24hr
cm
rain mn
cm
humidity
%
barometer
mb
20260509201645 16 271 1.6 3.2 0.00 0.00 0.00 58 1013.3
20260509195126 16 243 0.0 1.6 0.00 0.00 0.00 58 1013.4
20260509191558 16 252 12.9 16.1 0.00 0.00 0.00 58 1013.8
20260509183527 17 73 1.6 1.6 0.00 0.00 0.00 57 1013.5
20260509175455 16 106 0.0 0.0 0.00 0.00 0.00 58 1013.1
20260509174951 17 90 0.0 1.6 0.00 0.00 0.00 58 1013.2
20260509173440 17 90 0.0 1.6 0.00 0.00 0.00 58 1013.3
20260509172936 17 100 1.6 3.2 0.00 0.00 0.00 58 1013.5
20260509170920 17 90 1.6 3.2 0.00 0.00 0.00 58 1013.4
20260509170416 17 92 1.6 4.8 0.00 0.00 0.00 59 1013.7
20260509155825 15 125 1.6 3.2 0.00 0.00 0.00 59 1014.4
20260509155321 15 247 1.6 3.2 0.00 0.00 0.00 59 1014.5
20260509153811 15 135 1.6 4.8 0.00 0.00 0.00 59 1014.5
20260509150242 15 244 6.4 8.0 0.00 0.00 0.00 59 1014.5
20260509145738 15 135 1.6 8.0 0.00 0.00 0.00 59 1014.6
20260509143723 14 90 1.6 4.8 0.00 0.00 0.00 60 1014.5
20260509124052 11 90 0.0 3.2 0.00 0.00 0.00 62 1015.0
20260509122540 11 115 0.0 3.2 0.00 0.00 0.00 63 1015.4
20260509122037 10 247 0.0 3.2 0.00 0.00 0.00 63 1015.5
20260509120020 10 90 0.0 1.6 0.00 0.00 0.00 63 1015.5
20260509115517 10 90 0.0 1.6 0.00 0.00 0.00 63 1015.6
20260509114509 10 90 0.0 0.0 0.00 0.00 0.00 62 1015.6
20260509111449 10 135 0.0 0.0 0.00 0.00 0.00 62 1015.5
20260509110438 10 135 1.6 1.6 0.00 0.00 0.00 62 1015.6
20260509105934 10 135 1.6 1.6 0.00 0.00 0.00 62 1015.5
20260509104926 10 225 0.0 0.0 0.00 0.00 0.00 62 1015.5
20260509104422 9 90 0.0 0.0 0.00 0.00 0.00 62 1015.4
20260509095848 10 135 0.0 0.0 0.00 0.00 0.00 62 1015.6
20260509095342 10 135 0.0 1.6 0.00 0.00 0.00 62 1015.6
20260509094838 10 90 0.0 0.0 0.00 0.00 0.00 61 1015.6
20260509093326 10 135 0.0 0.0 0.00 0.00 0.00 61 1015.3
20260509092823 10 90 0.0 1.6 0.00 0.00 0.00 61 1015.3
20260509092319 10 90 1.6 1.6 0.00 0.00 0.00 61 1015.3
20260509091817 10 90 1.6 1.6 0.00 0.00 0.00 61 1015.4
20260509083744 10 90 1.6 3.2 0.00 0.00 0.00 61 1015.4
20260509083240 10 292 3.2 3.2 0.00 0.00 0.00 61 1015.4
20260509082735 10 90 0.0 0.0 0.00 0.00 0.00 60 1015.2
20260509081224 10 90 0.0 0.0 0.00 0.00 0.00 60 1015.2
20260509080720 10 90 0.0 0.0 0.00 0.00 0.00 60 1015.2
20260509080217 10 135 0.0 1.6 0.00 0.00 0.00 60 1015.2
20260509072144 10 90 0.0 0.0 0.00 0.00 0.00 58 1015.3
20260509071642 10 90 0.0 0.0 0.00 0.00 0.00 58 1015.2
20260509070633 10 135 0.0 1.6 0.00 0.00 0.00 58 1015.1
20260509063612 10 90 0.0 1.6 0.00 0.00 0.00 57 1015.1
20260509062058 10 90 0.0 0.0 0.00 0.00 0.00 57 1015.2
20260509061554 10 135 0.0 0.0 0.00 0.00 0.00 57 1015.3
20260509055034 10 90 0.0 0.0 0.00 0.00 0.00 57 1015.6
20260509051002 10 90 0.0 0.0 0.00 0.00 0.00 56 1015.7
20260509045955 11 292 1.6 1.6 0.00 0.00 0.00 56 1015.7
20260509044444 11 247 1.6 1.6 0.00 0.00 0.00 56 1015.7
20260509043435 11 135 0.0 0.0 0.00 0.00 0.00 56 1015.8
20260509040413 11 135 0.0 1.6 0.00 0.00 0.00 55 1015.7
20260509034356 11 270 0.0 1.6 0.00 0.00 0.00 55 1015.8
20260509032340 11 247 1.6 1.6 0.00 0.00 0.00 54 1015.6
20260509031837 11 90 0.0 0.0 0.00 0.00 0.00 54 1015.5
20260509031332 11 135 0.0 3.2 0.00 0.00 0.00 54 1015.5
20260509023301 11 90 0.0 0.0 0.00 0.00 0.00 53 1015.3
20260509002623 13 292 0.0 1.6 0.00 0.00 0.00 46 1013.9
20260509002119 14 135 0.0 0.0 0.00 0.00 0.00 46 1013.9
20260509000607 15 247 0.0 1.6 0.00 0.00 0.00 44 1013.7
20260508235559 15 247 1.6 1.6 0.00 0.00 0.00 43 1013.7
20260508235056 15 153 1.6 1.6 0.00 0.00 0.00 43 1013.6